Regional Weather Roundup
Issued by NWS

Home | Current Version | Previous Version | Graphics & Text | Print | Product List | Glossary On
Versions: 1 2 3 4 5 6 7 8 9 10 11 12 13 14 15 16 17 18 19 20 21 22 23 24 25 26 27 28 29 30 31 32 33 34 35 36 37 38 39 40 41 42 43 44 45 46 47 48 49
000
ASUS45 KCYS 260810
RWRWY

WYOMING REGIONAL WEATHER ROUNDUP
NATIONAL WEATHER SERVICE CHEYENNE WY
100 AM MST MON JAN 26 2015

NOTE:  "FAIR" INDICATES FEW OR NO CLOUDS BELOW 12,000 FEET
WITH NO SIGNIFICANT WEATHER AND/OR OBSTRUCTIONS TO VISIBILITY.

WYZ001-260900-
YELLOWSTONE NATIONAL PARK

CITY           SKY/WX    TMP DP  RH WIND       PRES   REMARKS
LK YELLOWSTONE   N/A     22  20  92 CALM      30.46F
W YELLOWSTONE  NOT AVBL

$$
WYZ002>013-054>058-071-098>099-260900-
NORTHERN WYOMING

CITY           SKY/WX    TMP DP  RH WIND       PRES   REMARKS
JACKSON        CLOUDY    25  25 100 CALM      30.46S
CODY           FAIR      55  21  26 W7        30.19S
GREYBULL       FAIR      20  19  96 CALM      30.22S
WORLAND        FAIR      25  21  85 S7        30.21S WCI  17
SHERIDAN       FAIR      37  27  67 S3        30.10R
BUFFALO        FAIR      44  26  49 W3        30.14R
GILLETTE       FAIR      43  29  57 W12       30.09S
HULETT           N/A    N/A N/A N/A MISG        N/A
NEWCASTLE      FAIR      36  30  80 N5        30.09R WCI  32

$$
WYZ014>020-022>026-101>103-260900-
CENTRAL WYOMING

CITY           SKY/WX    TMP DP  RH WIND       PRES   REMARKS
BIG PINEY      FAIR      31  24  75 NW8       30.37F WCI  23
PINEDALE       FAIR      27  21  80 NW3       30.38S
DUBOIS         FAIR      43  21  42 NW17G23   30.34R
LANDER         FAIR      38  26  62 NW7       30.24S WCI  33
RIVERTON       FAIR      37  26  64 S5        30.26S WCI  33
CASPER         FAIR      43  27  53 SW14      30.21F
DOUGLAS        FAIR      39  29  67 NW7       30.19S WCI  34

$$
WYZ021-027>030-104>119-260900-
SOUTHERN WYOMING

CITY           SKY/WX    TMP DP  RH WIND       PRES   REMARKS
EVANSTON       FAIR      29  26  89 E5        30.42S WCI  24
KEMMERER       FAIR      32  30  93 CALM      30.41R
FORT BRIDGER   FAIR      40  28  62 W12       30.41S WCI  33
ROCK SPRINGS   FAIR      35  27  72 W3        30.37F
DIXON          FAIR      28  24  84 E7        30.42F WCI  21
RAWLINS        FAIR      39  26  59 SW23G31   30.33S WCI  28
SARATOGA       FAIR      34  27  75 S12       30.37F WCI  25
LARAMIE        FAIR      28  21  75 W3        30.29S
CHEYENNE       FAIR      48  23  37 NW16G28   30.21S
TORRINGTON     FAIR      39  30  70 NW12      30.13S WCI  32
PINE BLUFFS    FAIR      43  28  56 W18       30.17F

$$


USA.gov is the U.S. government's official web portal to all federal, state and local government web resources and services.